Time,TemperatureF,DewpointF,PressureIn,WindDirection,WindDirectionDegrees,WindSpeedMPH,WindSpeedGustMPH,Humidity,HourlyPrecipIn,Conditions,Clouds,dailyrainin,SoftwareType,DateUTC
2013-01-27 00:00:00,24.1,23.5,30.39,ENE,68,0.0,0.0,98,0.00,,,0.08,meteohub,2013-01-27 05:00:00,
2013-01-27 00:02:00,24.1,23.5,30.39,ENE,68,0.0,0.0,98,0.00,,,0.08,meteohub,2013-01-27 05:02:00,
2013-01-27 00:03:00,24.1,23.5,30.39,ENE,68,0.0,0.0,98,0.00,,,0.08,meteohub,2013-01-27 05:03:00,
2013-01-27 00:08:00,24.1,23.5,30.39,ENE,68,0.0,0.0,98,0.00,,,0.00,meteohub,2013-01-27 05:08:00,
2013-01-27 00:13:00,24.1,23.5,30.39,ENE,68,0.0,0.0,98,0.00,,,0.00,meteohub,2013-01-27 05:13:00,
2013-01-27 00:18:00,23.9,23.4,30.39,ENE,68,0.0,0.0,98,0.00,,,0.00,meteohub,2013-01-27 05:18:00,
2013-01-27 00:23:00,23.7,23.2,30.39,ENE,68,0.0,0.0,98,0.00,,,0.00,meteohub,2013-01-27 05:23:00,
2013-01-27 00:28:00,23.9,23.4,30.39,ENE,68,0.0,0.0,98,0.00,,,0.00,meteohub,2013-01-27 05:28:00,
2013-01-27 00:33:00,25.3,24.8,30.39,ENE,68,3.0,0.0,98,0.00,,,0.00,meteohub,2013-01-27 05:33:00,
2013-01-27 00:38:00,25.5,25.0,30.39,ENE,68,0.0,3.0,98,0.00,,,0.00,meteohub,2013-01-27 05:38:00,
2013-01-27 00:43:00,25.3,24.8,30.42,ENE,68,0.0,3.0,98,0.00,,,0.00,meteohub,2013-01-27 05:43:00,
2013-01-27 00:48:00,24.8,24.3,30.42,ENE,68,0.0,3.0,98,0.00,,,0.00,meteohub,2013-01-27 05:48:00,
2013-01-27 00:53:00,24.8,24.3,30.42,ENE,68,0.0,3.0,98,0.00,,,0.00,meteohub,2013-01-27 05:53:00,
2013-01-27 00:58:00,24.8,24.3,30.39,ENE,68,0.0,3.0,98,0.00,,,0.00,meteohub,2013-01-27 05:58:00,
2013-01-27 01:03:00,24.4,23.9,30.39,ENE,68,0.0,3.0,98,0.00,,,0.00,meteohub,2013-01-27 06:03:00,
2013-01-27 01:08:00,24.4,23.9,30.39,ENE,68,0.0,0.0,98,0.00,,,0.00,meteohub,2013-01-27 06:08:00,
2013-01-27 01:13:00,24.6,24.1,30.42,ENE,68,0.0,0.0,98,0.00,,,0.00,meteohub,2013-01-27 06:13:00,
2013-01-27 01:18:00,24.3,23.7,30.42,ENE,68,0.0,0.0,98,0.00,,,0.00,meteohub,2013-01-27 06:18:00,
2013-01-27 01:24:00,24.1,23.5,30.42,ENE,68,0.0,0.0,98,0.00,,,0.00,meteohub,2013-01-27 06:24:00,
2013-01-27 01:29:00,24.4,23.9,30.42,ENE,68,0.0,0.0,98,0.00,,,0.00,meteohub,2013-01-27 06:29:00,
2013-01-27 01:34:00,24.1,23.5,30.42,ENE,68,0.0,0.0,98,0.00,,,0.00,meteohub,2013-01-27 06:34:00,
2013-01-27 01:39:00,23.7,23.2,30.42,ENE,68,0.0,0.0,98,0.00,,,0.00,meteohub,2013-01-27 06:39:00,
2013-01-27 01:44:00,23.5,23.0,30.42,ENE,68,0.0,0.0,98,0.00,,,0.00,meteohub,2013-01-27 06:44:00,
2013-01-27 01:49:00,23.5,23.0,30.42,ENE,68,0.0,0.0,98,0.00,,,0.00,meteohub,2013-01-27 06:49:00,
2013-01-27 01:54:00,23.4,22.8,30.42,ENE,68,0.0,0.0,98,0.00,,,0.00,meteohub,2013-01-27 06:54:00,
2013-01-27 01:59:00,23.2,22.6,30.42,ENE,68,0.0,0.0,98,0.00,,,0.00,meteohub,2013-01-27 06:59:00,
2013-01-27 02:04:00,23.0,22.5,30.42,ENE,68,0.0,0.0,98,0.00,,,0.00,meteohub,2013-01-27 07:04:00,
2013-01-27 02:09:00,23.0,22.5,30.42,ENE,68,0.0,0.0,98,0.00,,,0.00,meteohub,2013-01-27 07:09:00,
2013-01-27 02:14:00,22.8,22.3,30.42,ENE,68,0.0,0.0,98,0.00,,,0.00,meteohub,2013-01-27 07:14:00,
2013-01-27 02:19:00,22.6,22.1,30.42,ENE,68,0.0,0.0,98,0.00,,,0.00,meteohub,2013-01-27 07:19:00,
2013-01-27 02:24:00,22.5,21.9,30.42,ENE,68,0.0,0.0,98,0.00,,,0.00,meteohub,2013-01-27 07:24:00,
2013-01-27 02:29:00,22.6,22.1,30.42,ENE,68,0.0,0.0,98,0.00,,,0.00,meteohub,2013-01-27 07:29:00,
2013-01-27 02:34:00,22.3,21.7,30.42,ENE,68,0.0,0.0,98,0.00,,,0.00,meteohub,2013-01-27 07:34:00,
2013-01-27 02:39:00,22.1,21.6,30.42,ENE,68,0.0,0.0,98,0.00,,,0.00,meteohub,2013-01-27 07:39:00,
2013-01-27 02:44:00,21.9,21.4,30.42,ENE,68,0.0,0.0,98,0.00,,,0.00,meteohub,2013-01-27 07:44:00,
2013-01-27 02:49:00,22.3,21.7,30.42,ENE,68,0.0,0.0,98,0.00,,,0.00,meteohub,2013-01-27 07:49:00,
2013-01-27 02:54:00,22.3,21.7,30.42,ENE,68,0.0,0.0,98,0.00,,,0.00,meteohub,2013-01-27 07:54:00,
2013-01-27 02:59:00,22.3,21.7,30.45,ENE,68,0.0,0.0,98,0.00,,,0.00,meteohub,2013-01-27 07:59:00,
2013-01-27 03:04:00,22.5,21.9,30.45,ENE,68,0.0,3.0,98,0.00,,,0.00,meteohub,2013-01-27 08:04:00,
2013-01-27 03:09:00,22.1,21.6,30.45,ENE,68,0.0,3.0,98,0.00,,,0.00,meteohub,2013-01-27 08:09:00,
2013-01-27 03:14:00,21.9,21.4,30.42,ENE,68,0.0,3.0,98,0.00,,,0.00,meteohub,2013-01-27 08:14:00,
2013-01-27 03:19:00,21.9,21.4,30.42,ENE,68,0.0,0.0,98,0.00,,,0.00,meteohub,2013-01-27 08:19:00,
2013-01-27 03:24:00,21.7,21.2,30.42,ENE,68,0.0,0.0,98,0.00,,,0.00,meteohub,2013-01-27 08:24:00,
2013-01-27 03:29:00,21.9,21.4,30.42,ENE,68,0.0,0.0,98,0.00,,,0.00,meteohub,2013-01-27 08:29:00,
2013-01-27 03:34:00,21.9,21.4,30.42,ENE,68,0.0,0.0,98,0.00,,,0.00,meteohub,2013-01-27 08:34:00,
2013-01-27 03:39:00,21.9,21.4,30.42,ENE,68,0.0,0.0,98,0.00,,,0.00,meteohub,2013-01-27 08:39:00,
2013-01-27 03:44:00,21.9,21.4,30.42,ENE,68,0.0,0.0,98,0.00,,,0.00,meteohub,2013-01-27 08:44:00,
2013-01-27 03:49:00,21.9,21.4,30.42,ENE,68,0.0,2.0,98,0.00,,,0.00,meteohub,2013-01-27 08:49:00,
2013-01-27 03:54:00,22.3,21.7,30.42,ENE,68,0.0,2.0,98,0.00,,,0.00,meteohub,2013-01-27 08:54:00,
2013-01-27 03:59:00,22.5,21.9,30.42,ENE,68,0.0,2.0,98,0.00,,,0.00,meteohub,2013-01-27 08:59:00,
2013-01-27 04:04:00,22.5,21.9,30.42,ENE,68,0.0,0.0,98,0.00,,,0.00,meteohub,2013-01-27 09:04:00,
2013-01-27 04:09:00,22.6,22.1,30.42,ENE,68,0.0,0.0,98,0.00,,,0.00,meteohub,2013-01-27 09:09:00,
2013-01-27 04:14:00,22.6,22.1,30.45,ENE,68,0.0,0.0,98,0.00,,,0.00,meteohub,2013-01-27 09:14:00,
2013-01-27 04:19:00,22.6,22.1,30.45,ENE,68,0.0,0.0,98,0.00,,,0.00,meteohub,2013-01-27 09:19:00,
2013-01-27 04:24:00,22.6,22.1,30.45,ENE,68,0.0,0.0,98,0.00,,,0.00,meteohub,2013-01-27 09:24:00,
2013-01-27 04:29:00,22.8,22.3,30.45,ENE,68,0.0,0.0,98,0.00,,,0.00,meteohub,2013-01-27 09:29:00,
2013-01-27 04:34:00,23.0,22.5,30.45,ENE,68,0.0,0.0,98,0.00,,,0.00,meteohub,2013-01-27 09:34:00,
2013-01-27 04:39:00,22.8,22.3,30.45,ENE,68,2.0,3.0,98,0.00,,,0.00,meteohub,2013-01-27 09:39:00,
2013-01-27 04:44:00,22.8,22.3,30.45,ENE,68,0.0,3.0,98,0.00,,,0.00,meteohub,2013-01-27 09:44:00,
2013-01-27 04:49:00,23.0,22.5,30.45,ENE,68,0.0,3.0,98,0.00,,,0.00,meteohub,2013-01-27 09:49:00,
2013-01-27 04:54:00,23.0,22.5,30.45,ENE,68,2.0,2.0,98,0.00,,,0.00,meteohub,2013-01-27 09:54:00,
2013-01-27 04:59:00,23.0,22.5,30.45,ENE,68,0.0,0.0,98,0.00,,,0.00,meteohub,2013-01-27 09:59:00,
2013-01-27 05:04:00,23.0,22.5,30.45,ENE,68,0.0,2.0,98,0.00,,,0.00,meteohub,2013-01-27 10:04:00,
2013-01-27 05:09:00,23.0,22.5,30.45,ENE,68,0.0,3.0,98,0.00,,,0.00,meteohub,2013-01-27 10:09:00,
2013-01-27 05:14:00,23.0,22.5,30.45,ENE,68,0.0,3.0,98,0.00,,,0.00,meteohub,2013-01-27 10:14:00,
2013-01-27 05:19:00,23.0,22.5,30.45,ENE,68,2.0,3.0,98,0.00,,,0.00,meteohub,2013-01-27 10:19:00,
2013-01-27 05:24:00,23.0,22.5,30.45,ENE,68,0.0,3.0,98,0.00,,,0.00,meteohub,2013-01-27 10:24:00,
2013-01-27 05:30:00,23.0,22.5,30.45,ENE,68,0.0,3.0,98,0.00,,,0.00,meteohub,2013-01-27 10:30:00,
2013-01-27 05:35:00,23.0,22.5,30.45,ENE,68,0.0,3.0,98,0.00,,,0.00,meteohub,2013-01-27 10:35:00,
2013-01-27 05:40:00,22.8,22.3,30.45,ENE,68,0.0,2.0,98,0.00,,,0.00,meteohub,2013-01-27 10:40:00,
2013-01-27 05:45:00,22.8,22.3,30.45,ENE,68,0.0,0.0,98,0.00,,,0.00,meteohub,2013-01-27 10:45:00,
2013-01-27 05:50:00,22.8,22.3,30.45,ENE,68,2.0,2.0,98,0.00,,,0.00,meteohub,2013-01-27 10:50:00,
2013-01-27 05:55:00,22.8,22.3,30.45,ENE,68,0.0,2.0,98,0.00,,,0.00,meteohub,2013-01-27 10:55:00,
2013-01-27 06:00:00,22.6,22.1,30.45,ENE,68,3.0,3.0,98,0.00,,,0.00,meteohub,2013-01-27 11:00:00,
2013-01-27 06:05:00,22.6,22.1,30.45,ENE,68,0.0,3.0,98,0.00,,,0.00,meteohub,2013-01-27 11:05:00,
2013-01-27 06:10:00,22.6,22.1,30.48,ENE,68,0.0,3.0,98,0.00,,,0.00,meteohub,2013-01-27 11:10:00,
2013-01-27 06:15:00,22.5,21.9,30.48,ENE,68,0.0,3.0,98,0.00,,,0.00,meteohub,2013-01-27 11:15:00,
2013-01-27 06:20:00,22.5,21.9,30.48,ENE,68,0.0,3.0,98,0.00,,,0.00,meteohub,2013-01-27 11:20:00,
2013-01-27 06:25:00,22.5,21.9,30.48,ENE,68,0.0,2.0,98,0.00,,,0.00,meteohub,2013-01-27 11:25:00,
2013-01-27 06:30:00,22.5,21.9,30.48,ENE,68,0.0,0.0,98,0.00,,,0.00,meteohub,2013-01-27 11:30:00,
2013-01-27 06:35:00,22.5,21.9,30.48,ENE,68,0.0,0.0,98,0.00,,,0.00,meteohub,2013-01-27 11:35:00,
2013-01-27 06:40:00,22.5,21.9,30.48,ENE,68,0.0,0.0,98,0.00,,,0.00,meteohub,2013-01-27 11:40:00,
2013-01-27 06:45:00,22.5,21.9,30.48,ENE,68,0.0,2.0,98,0.00,,,0.00,meteohub,2013-01-27 11:45:00,
2013-01-27 06:50:00,22.6,22.1,30.48,ENE,68,0.0,2.0,98,0.00,,,0.00,meteohub,2013-01-27 11:50:00,
2013-01-27 06:55:00,22.6,22.1,30.48,ENE,68,0.0,2.0,98,0.00,,,0.00,meteohub,2013-01-27 11:55:00,
2013-01-27 07:00:00,22.8,22.3,30.48,ENE,68,3.0,3.0,98,0.00,,,0.00,meteohub,2013-01-27 12:00:00,
2013-01-27 07:05:00,22.8,22.3,30.48,ENE,68,0.0,3.0,98,0.00,,,0.00,meteohub,2013-01-27 12:05:00,
2013-01-27 07:10:00,23.0,22.5,30.51,ENE,68,3.0,3.0,98,0.00,,,0.00,meteohub,2013-01-27 12:10:00,
2013-01-27 07:15:00,23.2,22.6,30.51,ENE,68,2.0,3.0,98,0.00,,,0.00,meteohub,2013-01-27 12:15:00,
2013-01-27 07:20:00,23.2,22.6,30.51,ENE,68,0.0,3.0,98,0.00,,,0.00,meteohub,2013-01-27 12:20:00,
2013-01-27 07:25:00,23.4,22.8,30.51,ENE,68,3.0,3.0,98,0.00,,,0.00,meteohub,2013-01-27 12:25:00,
2013-01-27 07:30:00,23.4,22.8,30.51,ENE,68,0.0,3.0,98,0.00,,,0.00,meteohub,2013-01-27 12:30:00,
2013-01-27 07:35:00,23.5,23.0,30.51,ENE,68,0.0,3.0,98,0.00,,,0.00,meteohub,2013-01-27 12:35:00,
2013-01-27 07:40:00,23.5,23.0,30.51,ENE,68,0.0,3.0,98,0.00,,,0.00,meteohub,2013-01-27 12:40:00,
2013-01-27 07:45:00,23.7,23.2,30.51,ENE,68,0.0,3.0,98,0.00,,,0.00,meteohub,2013-01-27 12:45:00,
2013-01-27 07:50:00,23.9,23.4,30.51,ENE,68,0.0,3.0,98,0.00,,,0.00,meteohub,2013-01-27 12:50:00,
2013-01-27 07:55:00,24.1,23.5,30.54,ENE,68,0.0,0.0,98,0.00,,,0.00,meteohub,2013-01-27 12:55:00,
2013-01-27 08:00:00,24.3,23.7,30.54,ENE,68,0.0,0.0,98,0.00,,,0.00,meteohub,2013-01-27 13:00:00,
2013-01-27 08:05:00,24.4,23.9,30.54,ENE,68,0.0,0.0,98,0.00,,,0.00,meteohub,2013-01-27 13:05:00,
2013-01-27 08:11:00,24.6,24.1,30.54,ENE,68,0.0,0.0,98,0.00,,,0.00,meteohub,2013-01-27 13:11:00,
2013-01-27 08:16:00,24.6,24.1,30.54,ENE,68,0.0,0.0,98,0.00,,,0.00,meteohub,2013-01-27 13:16:00,
2013-01-27 08:21:00,24.8,24.3,30.54,ENE,68,0.0,0.0,98,0.00,,,0.00,meteohub,2013-01-27 13:21:00,
2013-01-27 08:26:00,25.0,24.4,30.54,ENE,68,0.0,0.0,98,0.00,,,0.00,meteohub,2013-01-27 13:26:00,
2013-01-27 08:31:00,25.0,24.4,30.54,ENE,68,0.0,3.0,98,0.00,,,0.00,meteohub,2013-01-27 13:31:00,
2013-01-27 08:36:00,25.3,24.8,30.54,ENE,68,0.0,3.0,98,0.00,,,0.00,meteohub,2013-01-27 13:36:00,
2013-01-27 08:41:00,25.5,25.0,30.57,ENE,68,2.0,2.0,98,0.00,,,0.00,meteohub,2013-01-27 13:41:00,
2013-01-27 08:46:00,25.5,25.0,30.57,ENE,68,2.0,2.0,98,0.00,,,0.00,meteohub,2013-01-27 13:46:00,
2013-01-27 08:51:00,25.7,25.2,30.57,ENE,68,2.0,3.0,98,0.00,,,0.00,meteohub,2013-01-27 13:51:00,
2013-01-27 08:56:00,25.7,25.2,30.57,ENE,68,2.0,3.0,98,0.00,,,0.00,meteohub,2013-01-27 13:56:00,
2013-01-27 09:01:00,25.9,25.3,30.57,ENE,68,0.0,3.0,98,0.00,,,0.00,meteohub,2013-01-27 14:01:00,
2013-01-27 09:06:00,26.2,25.7,30.57,ENE,68,3.0,4.0,98,0.00,,,0.00,meteohub,2013-01-27 14:06:00,
2013-01-27 09:11:00,26.8,26.2,30.57,ENE,68,0.0,4.0,98,0.00,,,0.00,meteohub,2013-01-27 14:11:00,
2013-01-27 09:16:00,27.5,27.0,30.57,ENE,68,4.0,4.0,98,0.00,,,0.00,meteohub,2013-01-27 14:16:00,
2013-01-27 09:21:00,27.5,27.0,30.57,ENE,68,0.0,4.0,98,0.00,,,0.00,meteohub,2013-01-27 14:21:00,
2013-01-27 09:26:00,27.7,27.1,30.57,ENE,68,0.0,4.0,98,0.00,,,0.00,meteohub,2013-01-27 14:26:00,
2013-01-27 09:31:00,28.2,27.7,30.57,ENE,68,2.0,4.0,98,0.00,,,0.00,meteohub,2013-01-27 14:31:00,
2013-01-27 09:36:00,28.6,28.0,30.57,ENE,68,0.0,3.0,98,0.00,,,0.00,meteohub,2013-01-27 14:36:00,
2013-01-27 09:41:00,28.6,28.0,30.57,ENE,68,2.0,4.0,98,0.00,,,0.00,meteohub,2013-01-27 14:41:00,
2013-01-27 09:46:00,28.6,28.0,30.57,ENE,68,0.0,4.0,98,0.00,,,0.00,meteohub,2013-01-27 14:46:00,
2013-01-27 09:51:00,28.8,28.2,30.57,ENE,68,3.0,4.0,98,0.00,,,0.00,meteohub,2013-01-27 14:51:00,
2013-01-27 09:56:00,29.1,28.6,30.57,ENE,68,3.0,4.0,98,0.00,,,0.00,meteohub,2013-01-27 14:56:00,
2013-01-27 10:01:00,29.3,28.8,30.57,ENE,68,0.0,4.0,98,0.00,,,0.00,meteohub,2013-01-27 15:01:00,
2013-01-27 10:06:00,30.2,29.7,30.57,ENE,68,4.0,4.0,98,0.00,,,0.00,meteohub,2013-01-27 15:06:00,
2013-01-27 10:11:00,30.6,30.0,30.57,ENE,68,3.0,4.0,98,0.00,,,0.00,meteohub,2013-01-27 15:11:00,
2013-01-27 10:16:00,30.9,30.4,30.57,ENE,68,4.0,4.0,98,0.00,,,0.00,meteohub,2013-01-27 15:16:00,
2013-01-27 10:21:00,30.9,30.4,30.57,ENE,68,3.0,4.0,98,0.00,,,0.00,meteohub,2013-01-27 15:21:00,
2013-01-27 10:26:00,31.3,30.6,30.60,ENE,68,2.0,4.0,97,0.00,,,0.00,meteohub,2013-01-27 15:26:00,
2013-01-27 10:31:00,31.6,30.6,30.60,ENE,68,4.0,4.0,96,0.00,,,0.00,meteohub,2013-01-27 15:31:00,
2013-01-27 10:36:00,32.0,30.2,30.60,ENE,68,3.0,4.0,93,0.00,,,0.00,meteohub,2013-01-27 15:36:00,
2013-01-27 10:41:00,32.2,29.3,30.60,ENE,68,4.0,5.0,89,0.00,,,0.00,meteohub,2013-01-27 15:41:00,
2013-01-27 10:46:00,32.2,28.4,30.60,East,90,5.0,6.0,86,0.00,,,0.00,meteohub,2013-01-27 15:46:00,
2013-01-27 10:52:00,32.5,27.1,30.60,East,90,2.0,6.0,80,0.00,,,0.00,meteohub,2013-01-27 15:52:00,
2013-01-27 10:56:00,33.1,27.0,30.60,East,90,2.0,6.0,78,0.00,,,0.00,meteohub,2013-01-27 15:56:00,
2013-01-27 11:01:00,33.1,26.1,30.60,SE,135,3.0,6.0,75,0.00,,,0.00,meteohub,2013-01-27 16:01:00,
2013-01-27 11:07:00,33.6,25.2,30.60,SE,135,3.0,5.0,71,0.00,,,0.00,meteohub,2013-01-27 16:07:00,
2013-01-27 11:12:00,34.0,23.9,30.57,ESE,112,0.0,5.0,66,0.00,,,0.00,meteohub,2013-01-27 16:12:00,
2013-01-27 11:17:00,34.5,22.8,30.57,East,90,3.0,4.0,62,0.00,,,0.00,meteohub,2013-01-27 16:17:00,
2013-01-27 11:22:00,34.5,20.5,30.57,ESE,112,4.0,6.0,56,0.00,,,0.00,meteohub,2013-01-27 16:22:00,
2013-01-27 11:27:00,34.7,20.1,30.57,West,270,2.0,6.0,55,0.00,,,0.00,meteohub,2013-01-27 16:27:00,
2013-01-27 11:32:00,34.9,19.0,30.57,ESE,112,5.0,6.0,52,0.00,,,0.00,meteohub,2013-01-27 16:32:00,
2013-01-27 11:37:00,34.9,18.1,30.57,SE,135,4.0,8.0,50,0.00,,,0.00,meteohub,2013-01-27 16:37:00,
2013-01-27 11:42:00,34.9,18.1,30.57,SSE,158,4.0,10.0,50,0.00,,,0.00,meteohub,2013-01-27 16:42:00,
2013-01-27 11:47:00,34.9,18.1,30.57,SSE,158,6.0,10.0,50,0.00,,,0.00,meteohub,2013-01-27 16:47:00,
2013-01-27 11:52:00,34.9,18.1,30.57,NE,45,5.0,10.0,50,0.00,,,0.00,meteohub,2013-01-27 16:52:00,
2013-01-27 11:57:00,35.4,19.0,30.57,ESE,112,4.0,9.0,51,0.00,,,0.00,meteohub,2013-01-27 16:57:00,
2013-01-27 12:01:00,35.6,19.2,30.57,ESE,112,6.0,9.0,51,0.00,,,0.00,meteohub,2013-01-27 17:01:00,
2013-01-27 12:07:00,35.4,18.7,30.57,NNE,22,3.0,6.0,50,0.00,,,0.00,meteohub,2013-01-27 17:07:00,
2013-01-27 12:12:00,35.4,18.7,30.57,SE,135,3.0,6.0,50,0.00,,,0.00,meteohub,2013-01-27 17:12:00,
2013-01-27 12:17:00,36.1,19.2,30.57,SE,135,3.0,8.0,50,0.00,,,0.00,meteohub,2013-01-27 17:17:00,
2013-01-27 12:22:00,37.0,20.7,30.57,NNE,22,3.0,8.0,51,0.00,,,0.00,meteohub,2013-01-27 17:22:00,
2013-01-27 12:27:00,37.6,19.6,30.57,SE,135,6.0,8.0,48,0.00,,,0.00,meteohub,2013-01-27 17:27:00,
2013-01-27 12:32:00,37.8,19.4,30.57,NNE,22,6.0,8.0,47,0.00,,,0.00,meteohub,2013-01-27 17:32:00,
2013-01-27 12:37:00,37.9,19.6,30.57,SSE,158,5.0,8.0,47,0.00,,,0.00,meteohub,2013-01-27 17:37:00,
2013-01-27 12:42:00,37.4,18.5,30.54,North,0,0.0,8.0,46,0.00,,,0.00,meteohub,2013-01-27 17:42:00,
2013-01-27 12:47:00,38.1,19.2,30.54,NE,45,6.0,8.0,46,0.00,,,0.00,meteohub,2013-01-27 17:47:00,
2013-01-27 12:52:00,37.6,18.1,30.54,SSE,158,2.0,7.0,45,0.00,,,0.00,meteohub,2013-01-27 17:52:00,
2013-01-27 12:57:00,37.0,18.1,30.54,SE,135,0.0,6.0,46,0.00,,,0.00,meteohub,2013-01-27 17:57:00,
2013-01-27 13:02:00,36.9,19.0,30.54,ESE,112,2.0,6.0,48,0.00,,,0.00,meteohub,2013-01-27 18:02:00,
2013-01-27 13:07:00,36.7,18.9,30.54,NNE,22,3.0,5.0,48,0.00,,,0.00,meteohub,2013-01-27 18:07:00,
2013-01-27 13:12:00,36.3,18.5,30.54,NNE,22,0.0,4.0,48,0.00,,,0.00,meteohub,2013-01-27 18:12:00,
2013-01-27 13:17:00,36.7,19.4,30.54,SE,135,3.0,4.0,49,0.00,,,0.00,meteohub,2013-01-27 18:17:00,
2013-01-27 13:22:00,37.9,20.5,30.54,ESE,112,5.0,5.0,49,0.00,,,0.00,meteohub,2013-01-27 18:22:00,
2013-01-27 13:27:00,37.9,19.0,30.54,SE,135,2.0,6.0,46,0.00,,,0.00,meteohub,2013-01-27 18:27:00,
2013-01-27 13:32:00,39.0,19.4,30.54,SSE,158,4.0,6.0,45,0.00,,,0.00,meteohub,2013-01-27 18:32:00,
2013-01-27 13:37:00,38.8,18.9,30.54,SE,135,3.0,7.0,44,0.00,,,0.00,meteohub,2013-01-27 18:37:00,
2013-01-27 13:42:00,38.7,19.2,30.51,SSE,158,5.0,7.0,45,0.00,,,0.00,meteohub,2013-01-27 18:42:00,
2013-01-27 13:47:00,40.1,20.5,30.51,SE,135,3.0,7.0,45,0.00,,,0.00,meteohub,2013-01-27 18:47:00,
2013-01-27 13:52:00,39.7,19.0,30.51,ESE,112,3.0,7.0,43,0.00,,,0.00,meteohub,2013-01-27 18:52:00,
2013-01-27 13:57:00,39.6,18.9,30.51,NNE,22,0.0,7.0,43,0.00,,,0.00,meteohub,2013-01-27 18:57:00,
2013-01-27 14:02:00,39.2,18.0,30.51,West,270,3.0,7.0,42,0.00,,,0.00,meteohub,2013-01-27 19:02:00,
2013-01-27 14:07:00,38.8,18.9,30.51,WSW,248,0.0,5.0,44,0.00,,,0.00,meteohub,2013-01-27 19:07:00,
2013-01-27 14:12:00,38.8,18.9,30.51,West,270,3.0,6.0,44,0.00,,,0.00,meteohub,2013-01-27 19:12:00,
2013-01-27 14:17:00,39.2,19.0,30.51,SE,135,6.0,6.0,44,0.00,,,0.00,meteohub,2013-01-27 19:17:00,
2013-01-27 14:22:00,38.3,18.9,30.51,SE,135,2.0,6.0,45,0.00,,,0.00,meteohub,2013-01-27 19:22:00,
2013-01-27 14:27:00,38.1,19.2,30.51,SE,135,3.0,6.0,46,0.00,,,0.00,meteohub,2013-01-27 19:27:00,
2013-01-27 14:32:00,37.8,19.4,30.51,ESE,112,3.0,6.0,47,0.00,,,0.00,meteohub,2013-01-27 19:32:00,
2013-01-27 14:37:00,37.0,18.7,30.51,ESE,112,4.0,5.0,47,0.00,,,0.00,meteohub,2013-01-27 19:37:00,
2013-01-27 14:42:00,37.0,19.2,30.51,ESE,112,2.0,5.0,48,0.00,,,0.00,meteohub,2013-01-27 19:42:00,
2013-01-27 14:47:00,37.2,19.4,30.51,ESE,112,3.0,5.0,48,0.00,,,0.00,meteohub,2013-01-27 19:47:00,
2013-01-27 14:52:00,37.2,19.4,30.51,ESE,112,2.0,5.0,48,0.00,,,0.00,meteohub,2013-01-27 19:52:00,
2013-01-27 14:57:00,37.4,19.0,30.51,ESE,112,3.0,4.0,47,0.00,,,0.00,meteohub,2013-01-27 19:57:00,
2013-01-27 15:02:00,36.9,18.0,30.51,NNW,338,0.0,4.0,46,0.00,,,0.00,meteohub,2013-01-27 20:02:00,
2013-01-27 15:07:00,36.9,18.0,30.51,ESE,112,3.0,4.0,46,0.00,,,0.00,meteohub,2013-01-27 20:07:00,
2013-01-27 15:12:00,36.9,18.5,30.51,ESE,112,3.0,6.0,47,0.00,,,0.00,meteohub,2013-01-27 20:12:00,
2013-01-27 15:17:00,37.0,18.7,30.51,ESE,112,0.0,6.0,47,0.00,,,0.00,meteohub,2013-01-27 20:17:00,
2013-01-27 15:22:00,37.0,18.7,30.51,ESE,112,2.0,6.0,47,0.00,,,0.00,meteohub,2013-01-27 20:22:00,
2013-01-27 15:27:00,37.0,18.7,30.51,ESE,112,3.0,4.0,47,0.00,,,0.00,meteohub,2013-01-27 20:27:00,
2013-01-27 15:32:00,37.2,18.9,30.51,ESE,112,4.0,4.0,47,0.00,,,0.00,meteohub,2013-01-27 20:32:00,
2013-01-27 15:37:00,37.2,18.9,30.51,ESE,112,3.0,4.0,47,0.00,,,0.00,meteohub,2013-01-27 20:37:00,
2013-01-27 15:42:00,37.2,18.9,30.51,ESE,112,3.0,4.0,47,0.00,,,0.00,meteohub,2013-01-27 20:42:00,
2013-01-27 15:47:00,37.4,18.5,30.51,ESE,112,0.0,4.0,46,0.00,,,0.00,meteohub,2013-01-27 20:47:00,
2013-01-27 15:52:00,37.4,19.0,30.51,ESE,112,0.0,3.0,47,0.00,,,0.00,meteohub,2013-01-27 20:52:00,
2013-01-27 15:57:00,37.9,19.6,30.51,ESE,112,3.0,3.0,47,0.00,,,0.00,meteohub,2013-01-27 20:57:00,
2013-01-27 16:02:00,38.3,19.4,30.51,ESE,112,0.0,4.0,46,0.00,,,0.00,meteohub,2013-01-27 21:02:00,
2013-01-27 16:07:00,38.8,19.4,30.51,ESE,112,0.0,4.0,45,0.00,,,0.00,meteohub,2013-01-27 21:07:00,
2013-01-27 16:12:00,39.6,19.4,30.51,ESE,112,3.0,4.0,44,0.00,,,0.00,meteohub,2013-01-27 21:12:00,
2013-01-27 16:17:00,40.3,19.6,30.51,ESE,112,3.0,3.0,43,0.00,,,0.00,meteohub,2013-01-27 21:17:00,
2013-01-27 16:22:00,39.7,18.5,30.51,SE,135,3.0,4.0,42,0.00,,,0.00,meteohub,2013-01-27 21:22:00,
2013-01-27 16:27:00,39.6,18.3,30.51,SE,135,2.0,5.0,42,0.00,,,0.00,meteohub,2013-01-27 21:27:00,
2013-01-27 16:32:00,39.9,18.7,30.51,SE,135,0.0,5.0,42,0.00,,,0.00,meteohub,2013-01-27 21:32:00,
2013-01-27 16:37:00,39.7,18.5,30.51,SE,135,0.0,4.0,42,0.00,,,0.00,meteohub,2013-01-27 21:37:00,
2013-01-27 16:42:00,39.4,18.1,30.51,SE,135,3.0,4.0,42,0.00,,,0.00,meteohub,2013-01-27 21:42:00,
2013-01-27 16:47:00,38.8,18.3,30.51,SE,135,0.0,4.0,43,0.00,,,0.00,meteohub,2013-01-27 21:47:00,
2013-01-27 16:52:00,38.1,18.1,30.51,SE,135,3.0,4.0,44,0.00,,,0.00,meteohub,2013-01-27 21:52:00,
2013-01-27 16:57:00,38.1,18.7,30.51,SE,135,0.0,4.0,45,0.00,,,0.00,meteohub,2013-01-27 21:57:00,
2013-01-27 17:02:00,37.8,18.3,30.51,SE,135,0.0,4.0,45,0.00,,,0.00,meteohub,2013-01-27 22:02:00,
2013-01-27 17:07:00,37.4,18.0,30.51,SE,135,0.0,4.0,45,0.00,,,0.00,meteohub,2013-01-27 22:07:00,
2013-01-27 17:12:00,37.2,18.3,30.51,SE,135,0.0,0.0,46,0.00,,,0.00,meteohub,2013-01-27 22:12:00,
2013-01-27 17:17:00,36.9,19.0,30.51,SE,135,0.0,0.0,48,0.00,,,0.00,meteohub,2013-01-27 22:17:00,
2013-01-27 17:22:00,36.5,19.2,30.51,SE,135,0.0,0.0,49,0.00,,,0.00,meteohub,2013-01-27 22:22:00,
2013-01-27 17:27:00,36.1,19.2,30.54,SE,135,0.0,0.0,50,0.00,,,0.00,meteohub,2013-01-27 22:27:00,
2013-01-27 17:32:00,35.8,19.0,30.54,SE,135,0.0,0.0,50,0.00,,,0.00,meteohub,2013-01-27 22:32:00,
2013-01-27 17:37:00,35.8,19.4,30.54,SE,135,0.0,0.0,51,0.00,,,0.00,meteohub,2013-01-27 22:37:00,
2013-01-27 17:42:00,35.6,20.1,30.54,SE,135,0.0,0.0,53,0.00,,,0.00,meteohub,2013-01-27 22:42:00,
2013-01-27 17:47:00,35.4,20.5,30.54,SE,135,0.0,0.0,54,0.00,,,0.00,meteohub,2013-01-27 22:47:00,
2013-01-27 17:52:00,35.1,20.1,30.54,SE,135,0.0,0.0,54,0.00,,,0.00,meteohub,2013-01-27 22:52:00,
2013-01-27 17:57:00,34.5,19.9,30.54,SE,135,0.0,0.0,55,0.00,,,0.00,meteohub,2013-01-27 22:57:00,
2013-01-27 18:02:00,34.2,20.1,30.54,SE,135,0.0,0.0,56,0.00,,,0.00,meteohub,2013-01-27 23:02:00,
2013-01-27 18:07:00,33.8,20.7,30.54,SE,135,0.0,0.0,58,0.00,,,0.00,meteohub,2013-01-27 23:07:00,
2013-01-27 18:12:00,33.8,21.4,30.54,SE,135,0.0,0.0,60,0.00,,,0.00,meteohub,2013-01-27 23:12:00,
2013-01-27 18:17:00,33.4,21.4,30.54,SE,135,0.0,0.0,61,0.00,,,0.00,meteohub,2013-01-27 23:17:00,
2013-01-27 18:22:00,33.3,21.7,30.54,SE,135,0.0,0.0,62,0.00,,,0.00,meteohub,2013-01-27 23:22:00,
2013-01-27 18:27:00,33.1,21.6,30.54,SE,135,0.0,0.0,62,0.00,,,0.00,meteohub,2013-01-27 23:27:00,
2013-01-27 18:32:00,32.7,21.6,30.54,SE,135,0.0,0.0,63,0.00,,,0.00,meteohub,2013-01-27 23:32:00,
2013-01-27 18:37:00,32.5,21.7,30.54,SE,135,0.0,0.0,64,0.00,,,0.00,meteohub,2013-01-27 23:37:00,
2013-01-27 18:42:00,32.4,21.9,30.54,SE,135,0.0,0.0,65,0.00,,,0.00,meteohub,2013-01-27 23:42:00,
2013-01-27 18:47:00,32.0,21.6,30.54,SE,135,0.0,0.0,65,0.00,,,0.00,meteohub,2013-01-27 23:47:00,
2013-01-27 18:52:00,31.8,21.7,30.54,SE,135,0.0,0.0,66,0.00,,,0.00,meteohub,2013-01-27 23:52:00,
2013-01-27 18:57:00,31.8,22.1,30.54,SE,135,0.0,0.0,67,0.00,,,0.00,meteohub,2013-01-27 23:57:00,
2013-01-27 19:02:00,32.2,23.2,30.54,SE,135,0.0,0.0,69,0.00,,,0.00,meteohub,2013-01-28 00:02:00,
2013-01-27 19:07:00,32.7,24.1,30.54,SE,135,0.0,0.0,70,0.00,,,0.00,meteohub,2013-01-28 00:07:00,
2013-01-27 19:12:00,32.5,23.9,30.54,SE,135,0.0,0.0,70,0.00,,,0.00,meteohub,2013-01-28 00:12:00,
2013-01-27 19:17:00,32.7,24.1,30.54,SE,135,0.0,0.0,70,0.00,,,0.00,meteohub,2013-01-28 00:17:00,
2013-01-27 19:22:00,32.7,24.4,30.54,SE,135,0.0,0.0,71,0.00,,,0.00,meteohub,2013-01-28 00:22:00,
2013-01-27 19:27:00,32.7,24.4,30.54,SE,135,0.0,0.0,71,0.00,,,0.00,meteohub,2013-01-28 00:27:00,
2013-01-27 19:32:00,32.5,24.3,30.54,SE,135,0.0,0.0,71,0.00,,,0.00,meteohub,2013-01-28 00:32:00,
2013-01-27 19:37:00,32.5,24.3,30.54,SE,135,0.0,0.0,71,0.00,,,0.00,meteohub,2013-01-28 00:37:00,
2013-01-27 19:42:00,32.2,23.9,30.54,SE,135,0.0,0.0,71,0.00,,,0.00,meteohub,2013-01-28 00:42:00,
2013-01-27 19:47:00,31.8,23.5,30.54,SE,135,0.0,0.0,71,0.00,,,0.00,meteohub,2013-01-28 00:47:00,
2013-01-27 19:52:00,31.3,23.0,30.54,SE,135,0.0,0.0,71,0.00,,,0.00,meteohub,2013-01-28 00:52:00,
2013-01-27 19:57:00,30.9,23.0,30.51,SE,135,0.0,0.0,72,0.00,,,0.00,meteohub,2013-01-28 00:57:00,
2013-01-27 20:02:00,30.4,22.8,30.51,SE,135,0.0,0.0,73,0.00,,,0.00,meteohub,2013-01-28 01:02:00,
2013-01-27 20:07:00,30.2,23.0,30.51,SE,135,0.0,0.0,74,0.00,,,0.00,meteohub,2013-01-28 01:07:00,
2013-01-27 20:12:00,29.8,22.8,30.51,SE,135,0.0,0.0,75,0.00,,,0.00,meteohub,2013-01-28 01:12:00,
2013-01-27 20:17:00,29.7,22.6,30.51,SE,135,0.0,0.0,75,0.00,,,0.00,meteohub,2013-01-28 01:17:00,
2013-01-27 20:22:00,29.5,22.5,30.51,SE,135,0.0,0.0,75,0.00,,,0.00,meteohub,2013-01-28 01:22:00,
2013-01-27 20:27:00,29.5,22.8,30.51,SE,135,2.0,0.0,76,0.00,,,0.00,meteohub,2013-01-28 01:27:00,
2013-01-27 20:32:00,29.3,23.0,30.51,SE,135,0.0,3.0,77,0.00,,,0.00,meteohub,2013-01-28 01:32:00,
2013-01-27 20:37:00,29.1,23.2,30.51,SE,135,0.0,3.0,78,0.00,,,0.00,meteohub,2013-01-28 01:37:00,
2013-01-27 20:42:00,28.9,23.0,30.51,SE,135,0.0,3.0,78,0.00,,,0.00,meteohub,2013-01-28 01:42:00,
2013-01-27 20:47:00,28.8,23.0,30.51,SE,135,0.0,0.0,79,0.00,,,0.00,meteohub,2013-01-28 01:47:00,
2013-01-27 20:52:00,28.8,23.0,30.51,SE,135,0.0,0.0,79,0.00,,,0.00,meteohub,2013-01-28 01:52:00,
2013-01-27 20:57:00,28.8,23.0,30.51,SE,135,0.0,0.0,79,0.00,,,0.00,meteohub,2013-01-28 01:57:00,
2013-01-27 21:02:00,28.6,23.2,30.51,SE,135,0.0,0.0,80,0.00,,,0.00,meteohub,2013-01-28 02:02:00,
2013-01-27 21:07:00,28.4,23.0,30.51,SE,135,0.0,0.0,80,0.00,,,0.00,meteohub,2013-01-28 02:07:00,
2013-01-27 21:12:00,28.4,23.4,30.54,SE,135,0.0,0.0,81,0.00,,,0.00,meteohub,2013-01-28 02:12:00,
2013-01-27 21:17:00,28.2,23.2,30.54,SE,135,0.0,0.0,81,0.00,,,0.00,meteohub,2013-01-28 02:17:00,
2013-01-27 21:22:00,28.4,23.5,30.54,SE,135,0.0,3.0,82,0.00,,,0.00,meteohub,2013-01-28 02:22:00,
2013-01-27 21:27:00,28.4,23.5,30.54,SE,135,0.0,3.0,82,0.00,,,0.00,meteohub,2013-01-28 02:27:00,
2013-01-27 21:32:00,28.0,23.5,30.54,SE,135,0.0,3.0,83,0.00,,,0.00,meteohub,2013-01-28 02:32:00,
2013-01-27 21:37:00,27.9,23.4,30.54,SE,135,0.0,2.0,83,0.00,,,0.00,meteohub,2013-01-28 02:37:00,
2013-01-27 21:42:00,27.9,23.4,30.51,SE,135,0.0,0.0,83,0.00,,,0.00,meteohub,2013-01-28 02:42:00,
2013-01-27 21:47:00,27.5,23.0,30.51,SE,135,0.0,0.0,83,0.00,,,0.00,meteohub,2013-01-28 02:47:00,
2013-01-27 21:52:00,27.3,22.8,30.51,SE,135,0.0,0.0,83,0.00,,,0.00,meteohub,2013-01-28 02:52:00,
2013-01-27 21:57:00,27.3,23.2,30.51,SE,135,0.0,0.0,84,0.00,,,0.00,meteohub,2013-01-28 02:57:00,
2013-01-27 22:02:00,27.5,23.4,30.51,SE,135,0.0,0.0,84,0.00,,,0.00,meteohub,2013-01-28 03:02:00,
2013-01-27 22:07:00,27.9,23.9,30.51,SE,135,0.0,0.0,85,0.00,,,0.00,meteohub,2013-01-28 03:07:00,
2013-01-27 22:12:00,28.0,24.1,30.51,SE,135,0.0,0.0,85,0.00,,,0.00,meteohub,2013-01-28 03:12:00,
2013-01-27 22:17:00,28.6,24.4,30.51,SE,135,0.0,0.0,84,0.00,,,0.00,meteohub,2013-01-28 03:17:00,
2013-01-27 22:22:00,28.4,24.3,30.51,SE,135,0.0,0.0,84,0.00,,,0.00,meteohub,2013-01-28 03:22:00,
2013-01-27 22:27:00,28.8,24.3,30.51,SE,135,0.0,2.0,83,0.00,,,0.00,meteohub,2013-01-28 03:27:00,
2013-01-27 22:32:00,28.8,23.9,30.51,SE,135,0.0,3.0,82,0.00,,,0.00,meteohub,2013-01-28 03:32:00,
2013-01-27 22:37:00,29.3,24.3,30.51,SE,135,0.0,3.0,81,0.00,,,0.00,meteohub,2013-01-28 03:37:00,
2013-01-27 22:42:00,29.5,24.1,30.51,SE,135,0.0,0.0,80,0.00,,,0.00,meteohub,2013-01-28 03:42:00,
2013-01-27 22:47:00,29.7,23.9,30.51,SE,135,0.0,0.0,79,0.00,,,0.00,meteohub,2013-01-28 03:47:00,
2013-01-27 22:52:00,29.7,23.7,30.51,SE,135,0.0,0.0,78,0.00,,,0.00,meteohub,2013-01-28 03:52:00,
2013-01-27 22:57:00,29.5,23.2,30.51,SE,135,0.0,0.0,77,0.00,,,0.00,meteohub,2013-01-28 03:57:00,
2013-01-27 23:02:00,29.5,23.2,30.51,SE,135,0.0,0.0,77,0.00,,,0.00,meteohub,2013-01-28 04:02:00,
2013-01-27 23:07:00,29.5,23.2,30.51,SE,135,0.0,0.0,77,0.00,,,0.00,meteohub,2013-01-28 04:07:00,
2013-01-27 23:12:00,29.3,23.0,30.51,SE,135,2.0,0.0,77,0.00,,,0.00,meteohub,2013-01-28 04:12:00,
2013-01-27 23:17:00,29.1,22.8,30.51,SE,135,0.0,3.0,77,0.00,,,0.00,meteohub,2013-01-28 04:17:00,
2013-01-27 23:22:00,28.8,22.5,30.51,SE,135,0.0,3.0,77,0.00,,,0.00,meteohub,2013-01-28 04:22:00,
2013-01-27 23:27:00,28.8,22.5,30.51,SE,135,2.0,3.0,77,0.00,,,0.00,meteohub,2013-01-28 04:27:00,
2013-01-27 23:32:00,28.8,22.8,30.51,SE,135,0.0,3.0,78,0.00,,,0.00,meteohub,2013-01-28 04:32:00,
2013-01-27 23:37:00,28.6,22.6,30.51,SE,135,3.0,3.0,78,0.00,,,0.00,meteohub,2013-01-28 04:37:00,
2013-01-27 23:42:00,28.4,22.5,30.51,SE,135,0.0,3.0,78,0.00,,,0.00,meteohub,2013-01-28 04:42:00,
2013-01-27 23:47:00,28.4,22.6,30.51,SE,135,0.0,3.0,79,0.00,,,0.00,meteohub,2013-01-28 04:47:00,
2013-01-27 23:52:00,28.2,22.6,30.51,SE,135,0.0,3.0,79,0.00,,,0.00,meteohub,2013-01-28 04:52:00,
2013-01-27 23:57:00,28.0,22.5,30.51,SE,135,0.0,2.0,79,0.00,,,0.00,meteohub,2013-01-28 04:57:00,